Lexington Weather

Lexington, Massachusetts, USA

28°F
12/12/2019 4:06pm 
  • Lexington Conditions: Partly cloudy
  • Temperature: 28.0°F / -2.2°CColder 1.5°F than last hour.
  • Dew Point: 19.6°F 
  • Relative Humidity: 70%Increased 4.0% since last hour.
  • Wind: Wind from SSW SSW 1 mph, 10-min avg: 1 mph, gust: 2 mph
  • Barometer: 30.65 in Steady
  • Visibility: 10 miles
  • Snow Today: 0.0 in
  •   

Regional Weather Roundup
for Boston / Norton, MA

        
000
ASUS41 KBOX 111310
RWRBOX

REGIONAL WEATHER ROUNDUP
NATIONAL WEATHER SERVICE BOSTON/NORTON MA
800 AM EST WED DEC 11 2019

NOTE:  "FAIR" INDICATES FEW OR NO CLOUDS BELOW 12,000 FEET WITH NO 
SIGNIFICANT WEATHER AND/OR OBSTRUCTIONS TO VISIBILITY.

MAZALL-111400-
EASTERN MASSACHUSETTS
  
CITY           SKY/WX    TMP DP  RH WIND       PRES   REMARKS
BOSTON         LGT SNOW  33  28  81 W7        30.22R VSB 1   WCI  27  
BEVERLY        FLURRIES  30  27  88 CALM      30.19R                  
LAWRENCE       CLOUDY    30  27  88 W6        30.21R WCI  24          
BEDFORD        CLOUDY    30  27  88 SW5       30.20R WCI  25          
BLUE HILL        N/A     27  26  96 W6        30.18  WCI  20          
NORWOOD        LGT SNOW  32  28  85 CALM      30.22R FOG              
MARSHFIELD     LGT SNOW  32  32 100 VRB5      30.21R VSB 3/4 WCI  27  
PLYMOUTH       LGT SNOW  31  30  96 NW7       30.21R VSB 3/4 WCI  24  
TAUNTON        LGT SNOW  31  28  89 NW7       30.22R VSB 3/4 WCI  24  
NEW BEDFORD    LGT SNOW  31  28  89 NW5       30.22R VSB 1   WCI  26  
$$

MAZALL-111400-
CAPE COD AND THE ISLANDS
  
CITY           SKY/WX    TMP DP  RH WIND       PRES   REMARKS
FALMOUTH       LGT SNOW  30  30 100 N6        30.19R VSB 1   WCI  24  
HYANNIS        LGT SNOW  34  31  88 N10       30.18S VSB 1   WCI  26  
CHATHAM        LGT SNOW  33  32  96 N8        30.19R FOG     WCI  26  
PROVINCETOWN   LGT SNOW  32  31  96 NW14G23   30.21R FOG     WCI  22  
NANTUCKET      LGT SNOW  35  32  88 N16       30.18R FOG     WCI  25  
MARTHAS VNYRD  LGT SNOW  33  31  92 N7        30.20R VSB 1   WCI  27  
$$
 
MAZALL-111400-
CENTRAL AND WESTERN MASSACHUSETTS
  
CITY           SKY/WX    TMP DP  RH WIND       PRES   REMARKS
WORCESTER      FLURRIES  26  22  84 W8        30.17R WCI  18          
FITCHBURG      CLOUDY    28  24  85 CALM      30.21R                  
ORANGE         CLOUDY    30  20  66 W8        30.21R WCI  22          
SPRINGFIELD    MOCLDY    29  22  76 W8        30.21R WCI  21          
WESTFIELD      CLOUDY    28  20  71 W6        30.22R WCI  22          
NORTH ADAMS    FAIR      26  12  55 W8        30.21R WCI  18          
PITTSFIELD     MOCLDY    24  12  60 W6        30.18R WCI  17          
$$
 
RIZALL-111400-
RHODE ISLAND
  
CITY           SKY/WX    TMP DP  RH WIND       PRES   REMARKS
PROVIDENCE     SNOW      30  28  92 NW12G23   30.25R VSB 1/4 WCI  20  
NEWPORT        LGT SNOW  31  28  89 N13G22    30.23R VSB 3/4 WCI  21  
BLOCK ISLAND   LGT SNOW  31  30  96 N13G18    30.25R VSB 3/4 WCI  21  
SMITHFIELD     FLURRIES  27  26  96 W3        30.21R                  
WESTERLY       HVY SNOW  32  28  85 N12G22    30.25R VSB 1/4 WCI  23  
$$
 
CTZALL-111400-
CONNECTICUT
  
CITY           SKY/WX    TMP DP  RH WIND       PRES   REMARKS
BRADLEY INTL   FLURRIES  29  23  78 W6        30.24R WCI  23          
HARTFORD       CLOUDY    31  25  78 W3        30.26R                  
BRIDGEPORT     CLOUDY    32  27  81 CALM      30.27R                  
DANBURY        LGT SNOW  28  22  78 N8        30.26R WCI  20          
GROTON         LGT SNOW  30  26  85 N9        30.26R FOG     WCI  22  
NEW HAVEN      CLOUDY    33  28  81 N5        30.26R WCI  29          
CHESTER        FLURRIES  30  27  86 CALM      30.24R                  
MERIDEN        CLOUDY    29  25  85 CALM      30.27R                  
WILLIMANTIC    FLURRIES  29  27  92 W3        30.24R                  
OXFORD         LGT SNOW  27  21  78 N10       30.24R FOG     WCI  17  
$$

MEZ002-015-021-024-NHZ003-005-008-011-012-014-VTZ005-008-111400-
NORTHERN NEW ENGLAND
  
CITY           SKY/WX    TMP DP  RH WIND       PRES   REMARKS
PORTLAND ME    CLOUDY    32  22  66 NE5       30.18R WCI  27          
BANGOR ME      CLOUDY    27   9  46 NW8       30.18R WCI  19          
CONCORD NH     CLOUDY    28  15  58 N9        30.18R WCI  19          
MANCHESTER NH  CLOUDY    30  25  81 CALM      30.18R                  
NASHUA NH      CLOUDY    29  29 100 CALM      30.21R                  
PORTSMOUTH NH  CLOUDY    30  28  92 W5        30.16  WCI  25          
JAFFREY NH     CLOUDY    27  23  85 SW3       30.16R                  
KEENE NH       CLOUDY    28  18  66 NW3       30.21R                  
BURLINGTON VT  MOCLDY    20   7  57 NE6       30.24S WCI  12          
MT. WASHINGTON MOCLDY     1  -6  71 NW26        N/A  WCI -23          
$$

NYZ052-076-111400-
EASTERN NEW YORK
  
CITY           SKY/WX    TMP DP  RH WIND       PRES   REMARKS
ALBANY         MOCLDY    28  13  53 NW6       30.26R WCI  22          
NEW YORK CITY  FLURRIES  34  30  85 NE7       30.27R WCI  28          
$$
 
ANZALL-111400-
MARINE OBSERVATIONS
  
STATION/POSITION TIME  TEMP    WIND        PRES    VSBY  WAVE
                       AIR SEA DIR/SP/G                  HT/PER
                 (UTC) (F)     (DEG/KT/KT) (MB)    (MI)  (FT/S)
BOSTON BUOY      1250   31 47  330/ 14/ 17 1021.8R         3/11
BUZZARDS BAY     1200   33     350/ 18/ 19 1022.7R
NANTUCKET SOUND  1240      43              1022.3
MASS BAY-STELLWA 1204   31 46  320/ 16/ 19 1020.7R  1 7/8  4/11
ISLE OF SHOALS   1200   31     270/ 13/ 14 1021.3R
S OF BLOCK IS    1300      53                N/A           6/10
$$

......................KEY.........................
  SKY/WX - SKY CONDITION/PRESENT WEATHER
  TMP    - TEMPERATURE IN FAHRENHEIT
  DWPT   - DEWPOINT IN FAHRENHEIT
  RH     - RELATIVE HUMIDITY IN PERCENT
  WIND   - DIRECTION AND SPEED IN MPH
  PRES   - MEAN SEA LEVEL PRESSURE IN INCHES OF HG
  WCI    - WIND CHILL INDEX
  VSB    - VISIBILITY IN MILES
  HX     - HEAT INDEX
  TC     - TEMPERATURE IN CELSIUS
  VRB    - VARIABLE WIND DIRECTION
  N/A    - NOT AVAILABLE
  
      

Other recent Regional Weather Roundups

Thu Dec 12, 3:10pm

Thu Dec 12, 3:00pm

Thu Dec 12, 2:10pm

Thu Dec 12, 2:01pm

Thu Dec 12, 1:10pm

Thu Dec 12, 1:00pm

Thu Dec 12, 12:10pm

Thu Dec 12, 12:00pm

Thu Dec 12, 11:10am

Thu Dec 12, 11:00am

Thu Dec 12, 10:10am

Thu Dec 12, 8:10am

Thu Dec 12, 8:00am

Thu Dec 12, 7:10am

Thu Dec 12, 7:00am

Thu Dec 12, 6:10am

Thu Dec 12, 6:00am

Thu Dec 12, 5:10am

Thu Dec 12, 5:00am

Thu Dec 12, 4:10am

Thu Dec 12, 4:00am

Thu Dec 12, 3:10am

Thu Dec 12, 3:00am

Thu Dec 12, 2:10am

Thu Dec 12, 2:00am

Thu Dec 12, 1:10am

Thu Dec 12, 1:00am

Thu Dec 12, 12:10am

Thu Dec 12, 12:00am

Wed Dec 11, 11:10pm

Wed Dec 11, 11:00pm

Wed Dec 11, 10:10pm

Wed Dec 11, 10:00pm

Wed Dec 11, 9:10pm

Wed Dec 11, 9:00pm

Wed Dec 11, 8:10pm

Wed Dec 11, 8:00pm

Wed Dec 11, 7:10pm

Wed Dec 11, 7:00pm

Wed Dec 11, 6:10pm

Wed Dec 11, 6:00pm

Wed Dec 11, 5:10pm

Wed Dec 11, 5:01pm

Wed Dec 11, 4:10pm

Wed Dec 11, 4:00pm

Wed Dec 11, 3:10pm

Wed Dec 11, 3:01pm

Wed Dec 11, 2:10pm

Wed Dec 11, 2:00pm

Wed Dec 11, 1:10pm

Wed Dec 11, 1:00pm

Wed Dec 11, 12:10pm

Wed Dec 11, 12:00pm

Wed Dec 11, 11:10am

Wed Dec 11, 11:00am

Wed Dec 11, 10:10am

Wed Dec 11, 10:00am

Wed Dec 11, 9:10am

Wed Dec 11, 9:00am

Wed Dec 11, 8:00am

Wed Dec 11, 7:10am

Wed Dec 11, 7:00am

Wed Dec 11, 6:10am

Wed Dec 11, 6:00am

Wed Dec 11, 5:10am

Wed Dec 11, 5:00am

Wed Dec 11, 4:10am

Wed Dec 11, 4:00am

Wed Dec 11, 3:10am

Wed Dec 11, 3:01am

Wed Dec 11, 2:10am

Wed Dec 11, 2:01am

Wed Dec 11, 1:10am

Wed Dec 11, 1:00am

Wed Dec 11, 12:10am

Wed Dec 11, 12:00am

Tue Dec 10, 11:10pm

Tue Dec 10, 11:00pm

Tue Dec 10, 10:10pm

Tue Dec 10, 10:00pm

Tue Dec 10, 9:10pm

Tue Dec 10, 9:01pm

Tue Dec 10, 8:10pm

Tue Dec 10, 8:00pm

Tue Dec 10, 7:10pm

Tue Dec 10, 7:01pm

Tue Dec 10, 6:10pm

Tue Dec 10, 6:01pm

Tue Dec 10, 5:10pm

Tue Dec 10, 5:00pm

Tue Dec 10, 4:10pm

Tue Dec 10, 4:01pm

Tue Dec 10, 3:10pm

Tue Dec 10, 3:01pm

Tue Dec 10, 2:10pm

Tue Dec 10, 2:01pm

Tue Dec 10, 1:10pm

Tue Dec 10, 1:00pm

Tue Dec 10, 12:10pm

Tue Dec 10, 12:00pm

Tue Dec 10, 11:10am

Tue Dec 10, 11:00am

Tue Dec 10, 10:10am

Tue Dec 10, 10:00am

Tue Dec 10, 9:10am

Tue Dec 10, 9:01am

Tue Dec 10, 8:10am

Tue Dec 10, 8:00am

Tue Dec 10, 7:10am

Tue Dec 10, 7:00am

Tue Dec 10, 6:10am

Tue Dec 10, 6:00am

Tue Dec 10, 5:10am

Tue Dec 10, 5:00am

Tue Dec 10, 4:10am

Tue Dec 10, 4:00am

Tue Dec 10, 3:10am

Tue Dec 10, 3:00am

Tue Dec 10, 2:10am

Tue Dec 10, 2:01am

Tue Dec 10, 1:10am

Tue Dec 10, 1:00am

Tue Dec 10, 12:10am

Tue Dec 10, 12:01am

Mon Dec 9, 11:10pm

Mon Dec 9, 11:01pm

Mon Dec 9, 10:10pm

Mon Dec 9, 10:00pm

Mon Dec 9, 9:10pm

Mon Dec 9, 9:01pm

Mon Dec 9, 8:10pm

Mon Dec 9, 8:01pm

Mon Dec 9, 7:10pm

Mon Dec 9, 7:00pm

Mon Dec 9, 6:10pm

Mon Dec 9, 6:00pm

Mon Dec 9, 5:10pm

Mon Dec 9, 5:01pm

Mon Dec 9, 4:10pm

Mon Dec 9, 4:01pm

Meta data:

ID: 93a0d397-471a-4e3f-b031-12ec0fbd9f38
Link: https://api.weather.gov/products/93a0d397-471a-4e3f-b031-12ec0fbd9f38